Temperature
16 16 16 16 15 15 15 15 14 15 16 17 18 17 17 17 15 14 13 12 12 11 11 10 10 9 8 8 7 7 6 6 6 6 6 6 7 7 7 6 6 6 6 6
15 16 15 15 15 15 15 15 15 15 15 17 18 17 16 15 15 14 13 12 11 10 9 9 8 7 7 7 6 6 5 5 5 5 5 4 4 4 4 4 4 4 4 5
13 15 14 13 14 14 14 15 15 14 15 17 16 15 15 15 14 14 12 11 9 9 8 8 7 6 6 6 5 5 4 4 4 3 3 2 2 2 2 2 3 3 3 3
12 12 10 13 16 16 15 15 15 15 16 16 15 14 14 14 13 12 10 9 8 8 7 7 6 5 5 4 4 3 3 2 2 2 1 1 1 1 1 1 1 2 2 2
10 11 11 14 15 15 15 14 15 15 15 15 13 13 12 11 10 9 8 7 7 6 5 5 4 3 3 2 1 1 1 1 0 0 0 0 0 0 0 0 1 1 1 2
10 9 9 14 14 14 13 13 15 15 14 13 11 9 9 8 8 7 6 5 5 4 3 2 2 1 1 0 -0 -0 -0 -1 -1 -1 -1 -1 -1 -1 -1 -1 -0 -0 0 1
9 9 10 14 14 14 12 12 13 14 13 13 11 9 8 7 6 6 5 4 4 2 1 1 0 -0 -0 -1 -1 -1 -1 -1 -1 -2 -2 -2 -2 -2 -2 -2 -1 -1 -0 0
10 9 10 15 15 13 13 14 13 12 12 12 10 8 7 6 5 4 3 3 2 1 1 1 0 0 -0 -1 -1 -1 -2 -2 -2 -3 -3 -3 -3 -3 -3 -2 -2 -2 -1 -1
10 10 13 15 14 13 12 12 12 11 11 10 9 7 6 5 4 3 2 2 1 1 1 1 0 -1 -1 -1 -2 -3 -3 -3 -3 -4 -4 -4 -4 -4 -4 -3 -3 -3 -3 -3
11 12 13 13 12 10 10 10 9 9 9 8 7 6 5 4 3 2 2 1 1 1 1 0 -1 -2 -2 -2 -3 -4 -4 -4 -4 -4 -4 -4 -5 -5 -4 -4 -4 -4 -4 -4
10 11 11 12 11 9 9 8 8 7 7 6 5 4 3 2 1 1 1 1 0 -0 -1 -1 -2 -2 -2 -3 -4 -4 -4 -4 -4 -5 -5 -5 -5 -5 -5 -5 -5 -5 -5 -5
8 10 9 10 9 9 8 7 6 5 5 4 3 2 2 0 -0 -0 -0 -0 -1 -1 -2 -2 -2 -3 -3 -4 -5 -5 -5 -5 -5 -5 -6 -6 -6 -6 -6 -6 -6 -6 -6 -5
10 10 9 9 8 7 7 6 5 4 3 2 1 0 -1 -1 -0 -0 -1 -1 -2 -3 -3 -3 -3 -4 -4 -5 -5 -6 -6 -6 -6 -6 -7 -7 -7 -7 -7 -7 -7 -7 -6 -6
9 9 8 8 7 6 5 4 3 2 1 0 -1 -1 -1 -1 -1 -2 -2 -3 -3 -3 -4 -4 -4 -4 -5 -5 -6 -6 -7 -7 -7 -7 -7 -8 -8 -8 -8 -8 -8 -7 -7 -7
8 7 7 6 6 5 4 3 1 0 -0 -1 -2 -2 -2 -2 -2 -2 -3 -3 -4 -4 -4 -5 -5 -5 -6 -6 -7 -7 -7 -8 -8 -8 -8 -8 -9 -9 -9 -8 -8 -8 -8 -8
6 6 5 4 4 3 2 1 -0 -1 -2 -2 -2 -2 -2 -3 -3 -3 -3 -4 -5 -5 -5 -5 -5 -5 -6 -7 -7 -7 -8 -8 -8 -9 -9 -9 -9 -9 -9 -9 -9 -9 -9 -8
4 4 3 1 0 -0 -0 -1 -1 -1 -2 -2 -2 -2 -3 -3 -3 -4 -4 -4 -5 -5 -5 -5 -6 -6 -7 -7 -7 -8 -8 -9 -9 -9 -9 -10 -10 -10 -9 -9 -9 -9 -9 -9
4 3 2 1 1 1 -0 -1 -1 -1 -1 -2 -2 -3 -3 -4 -4 -4 -4 -5 -5 -5 -5 -6 -6 -7 -7 -8 -8 -9 -9 -9 -10 -10 -10 -10 -10 -10 -9 -9 -9 -9 -9 -9
5 4 3 1 1 -0 -1 -1 -1 -1 -2 -3 -3 -4 -4 -4 -4 -4 -5 -5 -5 -6 -5 -6 -7 -8 -8 -8 -9 -9 -10 -10 -10 -10 -10 -10 -10 -10 -10 -10 -10 -10 -10 -9
3 2 1 0 -0 -1 -1 -1 -2 -2 -3 -4 -4 -4 -4 -4 -5 -5 -5 -6 -6 -6 -7 -7 -8 -8 -9 -9 -10 -10 -10 -10 -11 -11 -10 -10 -10 -10 -10 -10 -10 -10 -10 -10
1 0 -0 -1 -1 -1 -1 -2 -2 -3 -3 -4 -4 -4 -5 -5 -5 -6 -6 -7 -6 -7 -8 -8 -9 -9 -9 -10 -10 -10 -10 -11 -11 -11 -11 -11 -10 -10 -10 -10 -11 -11 -11 -10
0 -0 -1 -1 -1 -2 -2 -3 -3 -3 -4 -4 -4 -5 -5 -6 -6 -6 -7 -7 -7 -8 -9 -9 -9 -10 -10 -10 -10 -10 -11 -11 -11 -11 -11 -11 -11 -11 -11 -11 -11 -11 -11 -11
-0 -1 -1 -2 -2 -2 -3 -3 -3 -4 -4 -5 -5 -6 -6 -7 -7 -8 -8 -8 -8 -9 -10 -10 -10 -10 -10 -11 -11 -11 -11 -11 -11 -11 -11 -11 -11 -12 -12 -11 -11 -11 -11 -11
-1 -1 -2 -2 -2 -3 -3 -3 -4 -4 -5 -5 -6 -6 -7 -8 -8 -8 -9 -9 -10 -10 -10 -10 -11 -11 -11 -11 -11 -11 -12 -12 -12 -12 -12 -12 -12 -12 -12 -12 -12 -12 -12 -11
-1 -1 -2 -3 -3 -3 -4 -4 -5 -5 -6 -6 -7 -7 -8 -9 -9 -9 -9 -10 -10 -11 -11 -11 -11 -11 -11 -12 -12 -12 -12 -12 -12 -12 -12 -12 -12 -12 -12 -12 -12 -12 -12 -12
-1 -2 -3 -3 -4 -4 -5 -5 -6 -6 -7 -8 -8 -8 -8 -9 -9 -10 -10 -10 -10 -11 -11 -11 -11 -12 -12 -12 -12 -13 -13 -13 -13 -13 -13 -13 -12 -12 -12 -12 -12 -12 -12 -12
-2 -3 -4 -5 -5 -5 -6 -6 -7 -8 -8 -9 -9 -9 -9 -9 -10 -10 -10 -10 -11 -11 -12 -12 -12 -12 -13 -13 -13 -13 -13 -13 -13 -13 -13 -13 -13 -13 -12 -12 -12 -12 -12 -12
Wind_Speed
3 2 3 5 8 9 11 10 8 8 11 12 9 9 6 3 7 6 5 5 4 5 6 7 8 9 9 9 10 10 10 10 9 9 10 11 12 13 14 14 15 14 15 15
3 5 6 9 13 14 13 15 16 16 18 14 11 3 2 1 3 5 6 6 6 7 8 9 9 8 8 9 10 10 10 10 9 10 10 11 12 13 13 14 14 15 15 16
3 3 6 9 12 14 11 12 10 12 12 8 5 3 3 2 1 2 6 7 8 10 10 8 8 8 8 9 10 10 10 10 10 11 12 11 12 13 12 12 13 12 13 14
3 4 8 9 6 4 7 9 10 10 9 7 4 5 4 4 4 7 9 10 10 8 7 7 8 8 9 10 10 10 10 10 11 12 12 13 12 12 12 12 12 13 13 13
3 4 8 10 9 3 3 5 8 10 8 2 7 6 5 8 12 12 10 8 7 7 7 7 7 8 8 9 9 9 9 10 11 12 13 13 13 12 13 13 12 12 13 14
5 4 6 6 5 8 6 6 4 1 1 5 5 1 2 7 10 10 8 8 8 8 7 7 7 7 7 8 8 8 9 10 11 11 13 13 13 13 12 12 12 14 15 14
6 6 8 6 6 5 1 4 3 4 2 3 4 3 6 8 9 9 9 9 8 6 5 5 5 5 7 8 8 8 9 11 11 12 13 14 12 11 13 14 14 14 15 12
4 6 7 3 2 3 6 1 2 1 2 3 5 8 8 8 8 7 6 5 4 3 3 5 5 6 7 8 9 9 10 11 12 12 13 15 13 12 13 15 15 13 12 12
7 8 6 3 5 7 8 7 5 3 3 4 4 6 7 6 5 3 3 2 2 3 5 5 5 6 8 9 9 10 10 11 11 12 11 11 12 13 13 12 12 11 11 12
7 6 7 10 8 9 8 6 7 7 6 4 5 6 5 4 2 1 1 1 2 4 5 6 6 7 8 9 9 10 11 11 11 11 11 10 10 11 12 12 11 11 12 14
12 11 11 8 5 6 4 5 5 5 4 4 5 5 4 3 2 1 2 3 4 5 7 7 7 8 9 9 9 10 10 11 11 10 11 11 11 10 12 10 13 16 12 13
9 9 10 11 8 5 4 2 5 6 5 4 3 3 3 1 0 1 3 4 5 7 8 8 9 9 9 9 9 10 10 10 9 10 10 10 11 13 15 17 25 25 23 21
9 10 9 10 4 4 3 5 6 6 6 5 3 2 1 1 2 3 4 6 7 7 8 9 9 10 9 8 9 9 10 11 10 10 10 11 11 12 15 18 22 23 23 24
9 8 10 6 4 5 6 7 7 7 6 5 4 2 1 2 3 5 6 6 7 8 9 9 10 10 9 9 10 10 10 13 13 10 9 9 10 12 12 14 15 12 15 22
4 5 2 4 5 5 5 5 5 6 6 6 4 3 3 3 5 6 7 7 8 9 9 9 10 10 10 10 10 10 10 9 9 9 8 9 10 11 12 13 13 13 12 15
3 3 1 2 4 5 5 6 7 7 6 5 4 3 3 4 6 7 8 8 8 9 9 9 11 12 11 10 9 9 9 17 16 10 9 9 10 11 11 12 13 12 11 12
3 5 7 7 8 8 8 7 6 5 5 4 3 3 3 5 7 8 8 8 8 9 9 10 12 13 10 8 9 8 8 12 18 13 9 11 11 10 11 11 11 11 11 15
6 4 5 6 6 8 8 7 5 4 4 3 2 3 5 7 8 9 9 9 9 10 10 11 11 10 9 9 10 9 9 8 8 10 10 11 12 11 11 11 12 13 11 13
4 3 2 4 6 7 7 6 5 4 3 2 3 5 7 8 8 9 9 9 11 13 12 10 18 15 11 12 16 9 8 9 10 10 11 16 15 10 10 11 11 11 12 11
1 3 4 5 6 6 6 5 4 3 3 3 5 7 8 8 8 9 9 11 10 10 12 15 14 10 10 11 17 8 8 10 12 13 13 11 11 11 10 11 11 11 11 11
6 7 7 6 6 6 5 5 5 4 4 4 6 8 9 9 9 9 10 12 11 11 12 19 13 9 10 13 18 9 10 13 14 13 12 12 11 10 10 10 10 12 11 11
9 8 8 7 7 6 5 5 5 4 5 6 8 8 9 10 10 10 10 10 12 18 14 9 9 16 20 23 12 11 13 14 14 12 11 10 10 10 9 9 9 11 10 10
8 8 8 7 7 5 5 5 5 5 6 7 8 8 9 9 9 10 12 10 9 18 15 10 18 28 31 19 13 13 14 13 13 12 10 9 9 9 9 10 10 10 9 9
7 7 6 5 5 4 5 5 5 5 6 7 8 9 9 9 9 8 9 17 22 24 14 19 29 30 29 14 11 11 11 11 10 10 11 11 10 9 9 10 10 9 9 10
6 6 6 6 5 5 5 4 4 5 6 6 7 8 7 7 9 10 10 12 20 23 14 19 28 29 19 12 12 13 12 12 13 14 12 12 11 11 10 10 9 9 8 8
5 5 5 5 4 2 1 1 3 4 5 6 7 6 7 7 9 11 11 12 15 21 17 13 14 19 14 13 14 14 14 15 16 14 12 13 13 12 11 10 11 9 8 8
5 4 3 3 2 2 1 2 4 5 5 7 9 9 9 10 10 11 13 13 14 14 14 14 14 14 14 15 15 15 15 14 14 14 13 13 12 11 11 11 9 8 8 8
Wind_Direction
29 6 309 266 249 235 231 234 241 255 268 279 296 311 328 98 133 142 150 126 78 43 19 15 28 27 19 8 359 348 343 340 335 340 341 337 332 327 325 323 322 318 317 317
276 247 255 264 253 247 249 249 253 266 274 280 294 314 17 68 156 178 155 103 64 35 28 31 27 19 12 2 347 338 338 330 334 342 337 329 323 319 318 318 319 319 319 320
287 3 335 267 247 237 231 232 240 252 260 281 295 273 230 211 211 212 128 88 62 53 45 28 13 10 5 351 336 333 329 329 343 340 329 322 319 318 316 318 315 313 315 316
287 306 245 245 270 234 242 248 239 252 275 310 5 28 32 36 36 60 73 66 61 48 28 15 6 6 358 342 331 327 326 342 340 331 324 322 320 319 319 318 315 315 311 308
209 246 268 271 269 225 242 275 262 265 280 53 68 19 8 54 76 79 73 69 59 41 21 4 1 0 345 326 323 321 337 337 328 323 320 320 319 319 317 316 315 313 312 308
202 219 247 271 56 50 28 287 279 301 72 118 101 347 85 74 80 76 67 60 47 29 8 1 358 349 328 316 314 323 328 321 318 317 317 317 314 313 313 314 311 313 309 306
228 229 258 284 101 73 252 279 61 46 47 154 172 150 105 83 75 66 59 51 38 20 6 347 331 327 313 310 314 321 322 320 319 319 318 315 313 313 314 314 311 309 308 309
212 221 248 2 55 240 261 290 192 212 182 136 107 97 92 85 79 71 65 55 35 1 327 314 322 332 320 315 316 320 321 320 318 317 317 319 314 314 315 314 310 310 313 318
199 224 248 325 330 347 347 341 1 21 76 101 98 97 101 96 92 86 85 65 13 324 309 312 322 326 311 308 314 318 317 314 312 312 312 314 316 316 316 313 313 317 322 322
282 275 311 330 11 39 40 41 41 45 50 73 103 114 122 132 150 190 111 25 327 315 309 306 312 314 307 309 314 315 313 311 310 313 314 313 312 311 311 312 314 319 321 318
276 288 306 307 351 23 72 105 98 84 70 89 125 138 152 170 195 273 351 338 324 312 303 305 314 313 308 308 311 310 309 310 313 313 312 310 307 305 305 303 311 316 312 309
262 282 293 301 321 17 27 89 140 133 115 85 98 130 150 173 70 351 338 329 314 306 305 307 308 303 300 301 305 309 310 310 309 308 307 306 306 306 303 306 309 308 307 307
275 294 296 305 360 81 70 90 96 111 131 131 127 149 193 310 342 335 317 303 297 297 297 297 295 294 295 299 304 302 300 303 304 303 302 302 305 308 309 309 307 308 311 316
300 310 304 332 66 88 99 101 100 102 119 145 165 193 242 299 306 300 292 292 294 292 288 288 289 292 297 301 300 296 295 299 300 294 294 297 300 302 303 305 310 313 317 319
13 48 79 110 106 108 112 121 136 158 171 180 185 209 243 269 279 282 286 288 287 283 283 287 292 296 297 294 291 290 291 291 290 288 291 294 297 300 302 304 308 311 314 316
61 40 58 205 199 174 162 174 183 184 184 188 204 230 250 269 276 278 279 280 281 284 288 292 293 293 290 285 285 289 291 298 303 299 298 300 300 301 304 306 308 308 309 311
221 247 231 229 215 198 192 195 193 180 179 196 230 259 284 286 282 280 278 278 279 280 282 285 287 289 287 290 295 294 291 296 301 301 297 300 301 300 299 300 302 303 304 307
229 249 215 204 191 184 191 192 184 183 199 224 263 286 283 279 278 282 286 288 288 286 283 280 284 294 297 297 295 290 290 290 291 295 298 299 298 295 297 298 298 299 301 304
18 30 102 161 164 173 178 182 187 198 214 236 266 271 271 272 276 282 289 292 293 295 295 291 301 304 295 298 303 292 290 292 295 296 296 298 301 297 295 295 297 298 300 301
239 181 180 171 167 169 172 176 181 204 227 244 261 269 273 275 279 284 287 286 280 278 285 292 296 293 295 295 301 288 288 294 297 296 295 293 292 292 292 294 296 298 301 302
211 199 189 180 180 178 181 182 194 217 232 245 258 266 272 277 278 280 283 289 288 284 290 298 300 295 298 299 302 295 295 295 294 292 291 290 289 289 290 294 299 303 304 304
206 201 199 196 195 197 196 197 205 222 243 256 264 270 277 282 284 283 274 279 290 297 302 293 295 300 305 304 299 296 294 292 292 289 286 285 285 286 288 292 294 299 300 299
204 200 199 199 200 201 193 198 212 229 249 260 269 275 279 282 287 291 294 291 292 299 305 296 301 303 304 305 297 294 292 289 288 287 285 282 281 282 284 287 288 290 290 292
201 192 188 179 165 180 218 235 240 245 255 262 264 267 272 282 284 276 276 295 305 305 302 298 302 304 306 305 298 294 289 286 285 285 285 283 280 278 278 280 283 282 281 286
183 169 164 167 182 211 233 246 262 272 273 273 275 275 273 275 286 294 295 297 300 303 300 301 304 305 306 298 295 292 290 286 287 288 285 284 283 281 278 277 278 278 277 280
166 173 180 183 183 184 215 289 285 288 292 293 292 291 291 290 291 293 295 294 294 301 304 300 298 299 298 295 293 292 291 291 291 289 285 283 281 279 278 275 275 274 274 275
147 144 139 150 171 180 221 284 288 290 293 296 298 298 298 300 300 300 299 300 300 299 299 298 298 297 296 295 294 292 290 288 286 284 283 281 279 275 271 267 268 267 268 273
Height
1476 1476 1477 1479 1480 1479 1482 1481 1484 1475 1470 1463 1461 1462 1462 1463 1464 1466 1468 1469 1470 1470 1470 1470 1469 1467 1465 1463 1460 1458 1455 1451 1448 1445 1441 1437 1432 1428 1424 1419 1415 1411 1406 1400
1479 1476 1477 1479 1475 1475 1475 1473 1472 1471 1467 1459 1460 1460 1461 1461 1463 1464 1465 1466 1467 1468 1468 1468 1466 1465 1463 1460 1458 1456 1452 1449 1445 1440 1436 1431 1427 1422 1418 1414 1409 1405 1400 1395
1485 1477 1480 1482 1467 1466 1467 1463 1465 1468 1462 1457 1458 1458 1458 1459 1461 1463 1463 1464 1465 1465 1465 1465 1464 1462 1459 1457 1455 1453 1450 1446 1441 1436 1431 1426 1421 1417 1412 1408 1403 1399 1394 1389
1489 1487 1496 1471 1452 1454 1456 1456 1457 1457 1456 1456 1456 1457 1457 1459 1461 1462 1462 1462 1462 1463 1463 1462 1461 1459 1458 1456 1453 1450 1447 1443 1438 1432 1427 1422 1417 1412 1406 1401 1397 1392 1388 1383
1491 1490 1481 1462 1451 1453 1456 1457 1453 1453 1453 1454 1455 1456 1458 1459 1459 1460 1462 1462 1462 1462 1461 1461 1459 1458 1456 1453 1451 1447 1443 1438 1434 1428 1422 1416 1411 1406 1400 1395 1390 1386 1381 1376
1487 1492 1489 1463 1456 1454 1458 1461 1451 1450 1452 1454 1455 1462 1462 1461 1459 1459 1460 1460 1460 1460 1460 1459 1458 1455 1452 1450 1447 1442 1437 1432 1427 1422 1416 1410 1405 1400 1395 1390 1385 1379 1374 1370
1485 1487 1475 1458 1457 1459 1469 1462 1454 1453 1453 1454 1456 1458 1459 1459 1458 1458 1458 1458 1457 1457 1456 1455 1453 1450 1447 1444 1441 1436 1430 1425 1421 1416 1410 1405 1400 1395 1390 1384 1379 1373 1368 1363
1480 1482 1478 1456 1457 1461 1460 1454 1453 1452 1453 1454 1455 1456 1456 1457 1457 1456 1455 1454 1453 1452 1452 1450 1448 1445 1441 1438 1434 1429 1424 1420 1415 1410 1405 1400 1395 1390 1385 1379 1373 1367 1362 1356
1470 1469 1458 1456 1457 1457 1455 1453 1452 1452 1452 1453 1454 1454 1454 1454 1454 1453 1452 1451 1449 1449 1447 1446 1443 1440 1436 1432 1428 1424 1419 1414 1410 1404 1399 1395 1390 1384 1379 1374 1369 1363 1358 1351
1460 1454 1454 1455 1454 1453 1453 1453 1453 1453 1453 1452 1452 1452 1452 1451 1450 1449 1448 1447 1447 1445 1443 1441 1438 1436 1432 1428 1423 1418 1413 1408 1403 1398 1393 1388 1384 1380 1375 1370 1365 1360 1354 1348
1457 1454 1454 1454 1453 1450 1449 1448 1448 1448 1449 1449 1448 1448 1448 1447 1446 1446 1445 1445 1443 1441 1438 1436 1433 1430 1427 1423 1418 1413 1408 1403 1398 1393 1388 1383 1378 1375 1371 1367 1363 1357 1351 1345
1454 1452 1452 1450 1449 1447 1445 1444 1444 1444 1444 1444 1444 1444 1443 1443 1443 1443 1442 1441 1439 1437 1434 1431 1428 1425 1422 1418 1414 1409 1403 1398 1393 1388 1383 1378 1373 1368 1364 1361 1355 1351 1346 1342
1447 1447 1446 1445 1444 1442 1441 1440 1440 1439 1439 1439 1439 1439 1439 1439 1439 1439 1438 1437 1435 1433 1431 1427 1424 1420 1417 1413 1409 1404 1399 1393 1388 1383 1378 1374 1369 1363 1356 1350 1347 1344 1340 1336
1443 1442 1440 1440 1439 1438 1437 1436 1436 1435 1435 1435 1435 1436 1436 1437 1437 1436 1435 1434 1432 1429 1426 1423 1419 1415 1411 1407 1403 1398 1394 1388 1383 1377 1373 1368 1363 1358 1352 1346 1340 1334 1332 1329
1438 1438 1438 1437 1436 1434 1433 1433 1433 1432 1432 1432 1433 1434 1434 1434 1434 1432 1431 1429 1426 1424 1420 1417 1413 1408 1405 1401 1397 1392 1387 1381 1376 1371 1367 1362 1357 1352 1347 1342 1337 1332 1327 1323
1434 1434 1433 1432 1431 1430 1429 1429 1429 1429 1430 1431 1432 1432 1432 1431 1430 1428 1426 1424 1421 1417 1414 1410 1406 1401 1398 1394 1390 1385 1379 1374 1370 1365 1360 1355 1351 1346 1342 1338 1333 1329 1324 1319
1429 1427 1426 1425 1425 1425 1425 1426 1426 1427 1428 1429 1430 1430 1428 1427 1425 1423 1421 1419 1415 1411 1408 1404 1399 1395 1392 1388 1383 1377 1371 1366 1362 1358 1354 1349 1345 1341 1337 1333 1329 1325 1320 1316
1422 1421 1420 1420 1420 1421 1423 1424 1425 1426 1427 1427 1427 1426 1424 1422 1421 1418 1416 1412 1408 1404 1401 1397 1393 1389 1384 1380 1375 1369 1364 1360 1356 1352 1347 1343 1339 1335 1332 1328 1324 1320 1315 1311
1418 1417 1417 1417 1418 1419 1421 1422 1423 1425 1425 1424 1423 1421 1420 1418 1416 1413 1409 1405 1401 1397 1393 1389 1385 1381 1376 1372 1368 1362 1358 1353 1349 1345 1341 1337 1333 1329 1326 1322 1319 1315 1310 1306
1416 1416 1416 1416 1417 1418 1419 1420 1421 1422 1421 1421 1419 1417 1415 1413 1410 1406 1402 1398 1395 1391 1386 1381 1377 1372 1368 1363 1360 1355 1351 1346 1341 1337 1333 1330 1326 1323 1320 1316 1313 1309 1305 1301
1414 1414 1414 1414 1415 1416 1417 1417 1417 1417 1417 1416 1415 1412 1409 1406 1403 1400 1395 1390 1386 1384 1379 1374 1370 1364 1360 1356 1352 1348 1343 1338 1334 1330 1326 1323 1319 1316 1312 1309 1306 1303 1299 1296
1411 1411 1411 1412 1413 1413 1414 1414 1413 1413 1412 1411 1409 1406 1402 1399 1396 1392 1388 1385 1380 1376 1371 1366 1361 1357 1352 1349 1344 1339 1334 1330 1326 1322 1319 1315 1312 1308 1305 1302 1299 1296 1293 1290
1407 1407 1408 1410 1410 1410 1410 1410 1409 1408 1406 1404 1402 1399 1396 1393 1389 1385 1380 1376 1373 1368 1363 1358 1353 1349 1345 1340 1335 1330 1326 1322 1318 1314 1311 1307 1304 1300 1297 1295 1292 1290 1287 1284
1403 1403 1404 1405 1406 1406 1406 1405 1404 1402 1400 1398 1396 1393 1389 1385 1381 1378 1374 1369 1365 1360 1354 1349 1345 1340 1336 1331 1326 1321 1317 1313 1309 1305 1302 1298 1295 1292 1289 1287 1285 1283 1280 1278
1398 1399 1399 1400 1400 1400 1400 1399 1398 1396 1394 1391 1389 1386 1383 1380 1376 1371 1366 1361 1356 1351 1345 1340 1336 1331 1326 1321 1316 1311 1307 1303 1300 1297 1293 1290 1286 1284 1281 1279 1278 1275 1273 1272
1393 1394 1394 1395 1395 1395 1395 1394 1392 1390 1387 1384 1381 1379 1376 1372 1368 1363 1358 1353 1348 1343 1337 1331 1326 1321 1316 1311 1306 1302 1298 1294 1291 1287 1284 1281 1278 1275 1273 1271 1270 1268 1267 1265
1389 1389 1389 1390 1390 1391 1390 1389 1386 1384 1381 1378 1375 1371 1368 1364 1360 1355 1350 1345 1339 1334 1328 1323 1317 1312 1307 1302 1297 1293 1288 1284 1281 1277 1274 1271 1268 1266 1264 1263 1262 1260 1260 1259